Regional Weather Roundup
Issued by NWS Wilmington, NC

Current Version | Previous Version | Text Only | Print | Product List | Glossary On
Versions: 1 2 3 4 5 6 7 8 9 10 11 12 13 14 15 16 17 18 19 20 21 22 23 24 25 26 27 28 29 30 31 32 33 34 35 36 37 38 39 40 41 42 43 44 45 46 47 48 49 50
000
ASUS42 KILM 221013
RWRILM
RWRILM
REGIONAL HOURLY WEATHER ROUNDUP
NATIONAL WEATHER SERVICE WILMINGTON NC
600 AM EDT FRI MAY 22 2015

NOTE: "FAIR" INDICATES FEW OR NO CLOUDS BELOW 12,000 FEET WITH NO
SIGNIFICANT WEATHER AND/OR OBSTRUCTIONS TO VISIBILITY.

...............WFO WILMINGTON COUNTY WARNING AREA...............

......COASTAL NC AND SC COUNTIES......

CITY           SKY/WX    TMP DP  RH WIND       PRES   REMARKS
WILMINGTON     MOCLDY    60  56  86 N7        30.04R
N MYRTLE BEACH CLOUDY    64  55  72 N9        30.04R
MYRTLE BEACH   CLOUDY    64  54  68 N12       30.06R

......INLAND NC AND SC COUNTIES.......

CITY           SKY/WX    TMP DP  RH WIND       PRES   REMARKS
LUMBERTON      MOCLDY    61  52  72 N8        30.07R
ELIZABETHTOWN  CLOUDY    61  57  86 CALM      30.06R
WHITEVILLE     CLOUDY    62  56  79 N5        30.05R
FLORENCE       CLOUDY    65  53  65 NE15G21   30.07R
DARLINGTON     PTCLDY    63  52  67 N9        30.09R

....................REST OF NORTH CAROLINA......................

.........EASTERN NC.........

CITY           SKY/WX    TMP DP  RH WIND       PRES   REMARKS
CAPE HATTERAS  CLOUDY    60  54  80 N8        30.02R
JACKSONVILLE   CLOUDY    57  52  82 NW5       30.06R
MOREHEAD CITY  CLOUDY    59  56  89 N8        30.03R
KENANSVILLE    MOCLDY    58  55  88 N5        30.06R
NEW BERN       CLOUDY    59  54  83 N9        30.06R
ELIZABETH CITY PTCLDY    54  50  86 NW10      30.04R

.........CENTRAL NC.........

CITY           SKY/WX    TMP DP  RH WIND       PRES   REMARKS
RALEIGH DURHAM PTCLDY    54  46  74 N6        30.08R
ROCKY MOUNT    MOCLDY    57  54  89 NW7       30.07R
ROANOKE RAPIDS NOT AVBL
FAYETTEVILLE   MOCLDY    60  51  72 N10       30.07R
HOFFMAN        MOCLDY    60  47  61 N13G21    30.12R

.........WESTERN NC.........

CITY           SKY/WX    TMP DP  RH WIND       PRES   REMARKS
CHARLOTTE      MOCLDY    58  41  53 N10       30.11R
GREENSBORO     PTCLDY    52  42  69 N6        30.10R
HICKORY        NOT AVBL
BOONE          NOT AVBL
ASHEVILLE      NOT AVBL

.....................REST OF SOUTH CAROLINA.....................

.........EASTERN SC.........

CITY           SKY/WX    TMP DP  RH WIND       PRES   REMARKS
CHARLESTON     PTCLDY    68  59  73 NE16      30.02R
BEAUFORT MCAS  PTCLDY    67  58  72 NW7       30.02R
HILTON HEAD    NOT AVBL

.........CENTRAL SC.........

CITY           SKY/WX    TMP DP  RH WIND       PRES   REMARKS
COLUMBIA       CLOUDY    68  47  46 NE12      30.05R
ORANGEBURG     CLOUDY    68  59  73 E8        30.04R
SUMTER SHAW    CLOUDY    66  54  65 NE14      30.05R

.........WESTERN SC.........

CITY           SKY/WX    TMP DP  RH WIND       PRES   REMARKS
GREENVILLE     NOT AVBL
ROCK HILL      MOCLDY    60  43  53 NE8G17    30.10R
ANDERSON       PTCLDY    56  45  66 NE5       30.09R
CLEMSON        NOT AVBL
GREENWOOD      CLEAR     55  46  71 N5        30.10R


...................COASTAL AND OFFSHORE REPORTS..................

................LOCAL PIERS AND NC RESERVE................


STATION/POSITION TIME  SKY/WX   TEMP    WIND        PRES    VSBY
                                AIR SEA DIR/SP/G
                 (UTC)          (F)     (DEG/KT/KT) (MB)    (MI)
JOHNY MRCER PIER 0900            61 76   10/ 13/ 14 1015.9R
NC RESRV MASNBRO NOT AVBL
OCEAN CREST PIER 1002            61 74  330/  7/ 12 1016.5R
SPRINGMAID  PIER 0900            66 75  360/  9/ 12 1016.5R


................COASTAL AND OFFSHORE BUOYS................


STATION/POSITION TIME  SKY/WX   TEMP    WIND        PRES    VSBY
                                AIR SEA DIR/SP/G
                 (UTC)          (F)     (DEG/KT/KT) (MB)    (MI)
DIMNDSHOAL 41025 0950            64 76  330/ 17/ 19 1015.8R
WVE H/P(F/S)=  4/ 7 WND WVE H/P(F/S)=  3/ 7 SWL H/P/D(F/S/D)=  2/ 70/11

CAPE LOOKOUT     1000            60     350/ 14/ 16 1016.6R
ONSLOW BAY 41036 NOT AVBL
5 WRITEBCH 41038 0908            64 76   10/ 14/ 19 1016.4R
MASONBORO  41110 0919               76                N/A
WVE H/P(F/S)=  2/ 7 WND WVE H/P(F/S)=  2/ 7

WILM HARBR 41108 0911               75                N/A
WVE H/P(F/S)=  3/ 6 WND WVE H/P(F/S)=  3/ 6

27WRITEBCH 41037 0900            64 78   20/ 17/ 19   N/A
FRYING PAN 41013 0950            69 74   30/ 19/ 23 1016.3R
WVE H/P(F/S)=  4/ 4 WND WVE H/P(F/S)=  3/ 4 SWL H/P/D(F/S/D)=  2/100/ 8

SUNST NRSH 41024 0908            63      20/ 12/ 16 1016.4R
CAPRS NRSH 41029 0908            72      50/ 21/ 27 1015.9R
EDISTO     41004 0950            72 76   40/ 23/ 27 1014.3R
WVE H/P(F/S)=  5/ 4 WND WVE H/P(F/S)=  5/ 4 SWL H/P/D(F/S/D)=  2/ 8



..........OFFSHORE BUOYS BEYOND 100 NM OFFSHORE...........
.....IN A TRIANGLE---HAT TO BERMUDA TO BAHAMAS TO HAT.....


STATION/POSITION TIME  SKY/WX   TEMP    WIND        PRES    VSBY
                                AIR SEA DIR/SP/G
                 (UTC)          (F)     (DEG/KT/KT) (MB)    (MI)
150E HAT   41001 NOT AVBL
W BERMUDA  41048 0950            74 74  210/ 17/ 21 1016.4R
WVE H/P(F/S)=  4/ 4 WND WVE H/P(F/S)=  3/ 4 SWL H/P/D(F/S/D)=  2/140/11

ATLANTIC S 41049 0950            75 77  100/  6/  8 1022.2R
WVE H/P(F/S)=  3/10 SWL H/P/D(F/S/D)=  3/ 70/10

E BAHAMAS  41046 0950            80 81  110/ 12/ 14 1018.9R
WVE H/P(F/S)=  3/ 9 WND WVE H/P(F/S)=  2/ 5 SWL H/P/D(F/S/D)=  2/ 60/ 9

NE BAHAMAS 41047 0950            77 79  210/ 10/ 12 1019.1R
WVE H/P(F/S)=  2/ 9 WND WVE H/P(F/S)=  2/ 3 SWL H/P/D(F/S/D)=  2/ 40/ 9

120E CANVRL41010 0920            80 79  220/ 14/ 16 1015.7R

END



USA.gov is the U.S. government's official web portal to all federal, state and local government web resources and services.